Learn to fly in the Ottawa region
Learn to fly in the Ottawa region

Whether a career goal or a childhood dream, learn to fly at the Rockcliffe Flying Club

Full motion simulator
Full motion simulator

The Redbird FMX Full Motion Training Device is the new industry standard and is an integral part of RFC's new training environment.

Where friends come to fly
Where friends come to fly

One could say it's the best place in the region for hangar talks and fun time with other people passionate about aviation.

Discover Ottawa from the sky
Discover Ottawa from the sky

Sightseeing flights are a great way to experience something new. Whether you're native to Ottawa or just visiting, see the city from a whole new perspective.

At the heart of the National Capital
At the heart of the National Capital

Visiting Ottawa for business or pleasure, Rockcliffe Airport is located 10 minutes from downtown Ottawa.

Tailwheel Conversion

Tailwheel Conversion

Are you looking to add a whole new level of stick & rudder experience to your flying? Do you want to expand your horizon by fine-tuning your skills?

The Rockcliffe Flying Club, through the availability of a C170, offers a comprehensive tailwheel conversion for tricycle gear pilots.

More

Welcoming women

Welcoming women

The Rockcliffe Flying Club was recognized as the "2014 Most Female-Pilot-Friendly Training Center" in Canada (and the number 2 world-wide) by the Institute For Women of Aviation Worldwide. Why wait to realize your dream of flight? Start your pilot training today!

Commercial license

Commercial license

Do you want to earn money while flying? Are you looking at making a career in aviation?

The Rockcliffe Flying Club offers both the Commercial Pilot License (CPL) and the Instructor Rating training at the heart of the Canadian capital.

More

Volunteering

Volunteering

Welcome to the Club’s Volunteer Management System. It is used to advertise all volunteer opportunities, assign members to positions, and record/report volunteer time.

Have questions? The first place to look for the answers, and to get an overview of how the VMS will be used in club operations, is in the frequently asked questions.

Find us on Facebook

Latest weather

For the latest and up-to-date weather, please visit the NavCanada Aviation Weather website.

CYND METAR

2014/07/28 01:00 CYND 280100Z 29004KT 270V010 15SM FEW100 FEW240 19/17 A2966 RMK AC1CI1 LAST OBS/NEXT 281100 UTC SLP043 DENSITY ALT 1000FT

CYOW METAR

2014/07/28 08:00 CYOW 280800Z 01010KT 15SM SCT027 BKN065 17/15 A2966 RMK SC4SC2 SLP042 DENSITY ALT 900FT

Information provided by the US National Weather Service.

Recent first solos